EWG5AE EDDC-EDDL

Flight info

Callsign EWG5AE
Flight time 0h 55m
Altitude 24000
Route BEBEX7E/04 BEBEX Q230 WRB/N0351F200 T854 DOMUX
Aircraft A319/M-SDE3FGHIRWY/LB1

Departure

Time 2026-04-30 17:59
Airport Dresden Airport (EDDC)

Arrival

Time 2026-04-30 18:54
Airport Düsseldorf Airport (EDDL)
Time Latitude Longitude Altitude Speed Heading
2026-04-30 17:39 51.12624 13.76536 753 ft 0 kts 221°
2026-04-30 17:49 51.12634 13.76551 748 ft 4 kts 221°
2026-04-30 17:50 51.12670 13.76679 748 ft 1 kts 308°
2026-04-30 17:53 51.12730 13.76565 751 ft 12 kts 311°
2026-04-30 17:54 51.12629 13.76165 759 ft 12 kts 219°
2026-04-30 17:55 51.12374 13.75819 764 ft 13 kts 220°
2026-04-30 17:56 51.12421 13.75594 764 ft 8 kts 303°
2026-04-30 17:57 51.12509 13.75527 764 ft 1 kts 40°
2026-04-30 17:58 51.13310 13.76619 773 ft 151 kts 40°
2026-04-30 17:59 51.17071 13.81877 3585 ft 229 kts 40°
2026-04-30 18:00 51.22708 13.85416 7726 ft 269 kts 351°
2026-04-30 18:00 51.28295 13.83562 10935 ft 290 kts 348°
2026-04-30 18:01 51.31500 13.78956 12460 ft 337 kts 301°
2026-04-30 18:02 51.32715 13.67492 15275 ft 359 kts 279°
2026-04-30 18:02 51.33406 13.55354 17712 ft 375 kts 279°
2026-04-30 18:03 51.34122 13.42605 19931 ft 391 kts 280°
2026-04-30 18:04 51.34854 13.29362 22048 ft 406 kts 280°
2026-04-30 18:05 51.36365 13.11183 24334 ft 417 kts 287°
2026-04-30 18:06 51.38418 12.93832 24431 ft 381 kts 287°
2026-04-30 18:07 51.40405 12.77174 24428 ft 381 kts 287°
2026-04-30 18:08 51.41860 12.64648 24434 ft 381 kts 287°
2026-04-30 18:09 51.43329 12.47788 24424 ft 385 kts 279°
2026-04-30 18:10 51.44073 12.30660 24421 ft 385 kts 279°
2026-04-30 18:11 51.44795 12.13527 24420 ft 385 kts 279°
2026-04-30 18:11 51.45258 12.00664 24419 ft 385 kts 278°
2026-04-30 18:12 51.45627 11.87790 24415 ft 385 kts 277°
2026-04-30 18:13 51.45875 11.79271 24420 ft 385 kts 277°
2026-04-30 18:13 51.46207 11.67805 24418 ft 385 kts 277°
2026-04-30 18:14 51.46482 11.57793 24423 ft 384 kts 277°
2026-04-30 18:15 51.46820 11.44998 24419 ft 384 kts 277°
2026-04-30 18:15 51.47148 11.32174 24424 ft 384 kts 277°
2026-04-30 18:16 51.47357 11.23625 24422 ft 383 kts 276°
2026-04-30 18:16 51.47558 11.15077 24426 ft 383 kts 276°
2026-04-30 18:17 51.47659 11.10807 24426 ft 383 kts 276°
2026-04-30 18:17 51.47755 11.06540 24426 ft 383 kts 276°
2026-04-30 18:17 51.47946 10.97999 24424 ft 383 kts 276°
2026-04-30 18:18 51.48042 10.93736 24427 ft 383 kts 276°
2026-04-30 18:18 51.48133 10.89469 24430 ft 382 kts 276°
2026-04-30 18:18 51.48222 10.85209 24430 ft 382 kts 276°
2026-04-30 18:18 51.48309 10.80948 24427 ft 382 kts 276°
2026-04-30 18:19 51.48395 10.76689 24427 ft 382 kts 276°
2026-04-30 18:19 51.48479 10.72432 24427 ft 382 kts 276°
2026-04-30 18:19 51.48561 10.68175 24430 ft 382 kts 275°
2026-04-30 18:19 51.48642 10.63919 24431 ft 382 kts 275°
2026-04-30 18:20 51.48725 10.59670 24430 ft 381 kts 275°
2026-04-30 18:20 51.48806 10.55420 24434 ft 381 kts 275°
2026-04-30 18:20 51.48885 10.51169 24425 ft 381 kts 275°
2026-04-30 18:20 51.48962 10.46927 24425 ft 381 kts 275°
2026-04-30 18:21 51.49037 10.42658 24427 ft 381 kts 275°
2026-04-30 18:21 51.49111 10.38408 24429 ft 381 kts 275°
2026-04-30 18:21 51.49183 10.34163 24430 ft 381 kts 275°
2026-04-30 18:21 51.49251 10.29912 24427 ft 381 kts 275°
2026-04-30 18:22 51.49317 10.25674 24426 ft 381 kts 275°
2026-04-30 18:22 51.49444 10.17180 24426 ft 380 kts 275°
2026-04-30 18:22 51.49508 10.12939 24425 ft 380 kts 275°
2026-04-30 18:23 51.49573 10.08698 24431 ft 380 kts 275°
2026-04-30 18:23 51.49635 10.04454 24426 ft 380 kts 274°
2026-04-30 18:23 51.49696 10.00217 24426 ft 380 kts 274°
2026-04-30 18:23 51.49756 9.95979 24422 ft 380 kts 274°
2026-04-30 18:24 51.49867 9.87458 24167 ft 385 kts 274°
2026-04-30 18:24 51.49916 9.83162 23925 ft 385 kts 274°
2026-04-30 18:24 51.49964 9.78878 23648 ft 384 kts 274°
2026-04-30 18:25 51.50013 9.74602 23373 ft 382 kts 274°
2026-04-30 18:25 51.50114 9.66094 22828 ft 380 kts 274°
2026-04-30 18:25 51.50160 9.61863 22558 ft 379 kts 273°
2026-04-30 18:26 51.50242 9.53452 22031 ft 376 kts 273°
2026-04-30 18:26 51.50281 9.49261 21770 ft 375 kts 273°
2026-04-30 18:26 51.50316 9.45092 21514 ft 374 kts 273°
2026-04-30 18:27 51.50385 9.36778 21003 ft 371 kts 273°
2026-04-30 18:27 51.50419 9.32636 20754 ft 370 kts 273°
2026-04-30 18:28 51.50485 9.24453 20381 ft 368 kts 272°
2026-04-30 18:28 51.50512 9.20346 20406 ft 369 kts 272°
2026-04-30 18:28 51.50564 9.12125 20294 ft 366 kts 272°
2026-04-30 18:29 51.50378 9.08065 19869 ft 366 kts 260°
2026-04-30 18:29 51.48923 8.96112 18649 ft 361 kts 259°
2026-04-30 18:30 51.48123 8.89511 17937 ft 358 kts 259°
2026-04-30 18:30 51.47017 8.80482 17026 ft 352 kts 259°
2026-04-30 18:31 51.46542 8.76648 16643 ft 350 kts 259°
2026-04-30 18:31 51.45595 8.69040 15934 ft 345 kts 259°
2026-04-30 18:32 51.44659 8.61542 15231 ft 341 kts 258°
2026-04-30 18:32 51.44190 8.57832 14895 ft 339 kts 258°
2026-04-30 18:32 51.43263 8.50474 14227 ft 335 kts 258°
2026-04-30 18:33 51.42804 8.46827 13860 ft 333 kts 258°
2026-04-30 18:33 51.41890 8.39606 13101 ft 329 kts 258°
2026-04-30 18:33 51.41433 8.36029 12728 ft 326 kts 257°
2026-04-30 18:34 51.40975 8.32477 12355 ft 324 kts 257°
2026-04-30 18:34 51.40069 8.25455 11608 ft 320 kts 257°
2026-04-30 18:34 51.39617 8.21973 11249 ft 318 kts 257°
2026-04-30 18:35 51.39172 8.18518 10872 ft 316 kts 257°
2026-04-30 18:35 51.38730 8.15083 10622 ft 316 kts 257°
2026-04-30 18:35 51.38287 8.11650 10425 ft 314 kts 257°
2026-04-30 18:36 51.37404 8.04858 10368 ft 311 kts 257°
2026-04-30 18:36 51.36960 8.01471 10367 ft 311 kts 256°
2026-04-30 18:36 51.36070 7.94700 10365 ft 311 kts 257°
2026-04-30 18:37 51.35625 7.91313 10362 ft 311 kts 257°
2026-04-30 18:37 51.35177 7.87932 10362 ft 311 kts 257°
2026-04-30 18:37 51.34728 7.84550 10360 ft 311 kts 256°
2026-04-30 18:37 51.34280 7.81169 10361 ft 311 kts 256°
2026-04-30 18:38 51.33829 7.77780 10356 ft 311 kts 256°
2026-04-30 18:38 51.33377 7.74404 10356 ft 311 kts 256°
2026-04-30 18:38 51.32922 7.71021 10359 ft 311 kts 256°
2026-04-30 18:38 51.32467 7.67643 10355 ft 311 kts 256°
2026-04-30 18:39 51.32013 7.64264 10356 ft 311 kts 256°
2026-04-30 18:39 51.31560 7.60882 10353 ft 311 kts 256°
2026-04-30 18:39 51.31107 7.57510 10356 ft 310 kts 256°
2026-04-30 18:39 51.30664 7.54174 10355 ft 311 kts 256°
2026-04-30 18:40 51.30237 7.50838 10267 ft 301 kts 256°
2026-04-30 18:40 51.29838 7.47528 9946 ft 298 kts 257°
2026-04-30 18:40 51.29448 7.44301 9569 ft 295 kts 256°
2026-04-30 18:40 51.29052 7.41090 9180 ft 294 kts 256°
2026-04-30 18:41 51.28664 7.37902 8791 ft 292 kts 257°
2026-04-30 18:41 51.28279 7.34728 8393 ft 290 kts 256°
2026-04-30 18:41 51.27899 7.31567 8008 ft 288 kts 256°
2026-04-30 18:41 51.27534 7.28481 7627 ft 286 kts 256°
2026-04-30 18:42 51.27287 7.26378 7398 ft 284 kts 256°
2026-04-30 18:42 51.26559 7.20178 7338 ft 285 kts 256°
2026-04-30 18:42 51.26071 7.16062 7335 ft 286 kts 256°
2026-04-30 18:45 51.22631 6.86173 5776 ft 277 kts 256°
2026-04-30 18:45 51.22300 6.83154 5525 ft 276 kts 256°
2026-04-30 18:45 51.21760 6.80276 5278 ft 268 kts 238°
2026-04-30 18:46 51.20837 6.77723 5068 ft 264 kts 233°
2026-04-30 18:46 51.19882 6.75229 5007 ft 264 kts 233°
2026-04-30 18:46 51.18901 6.72787 4751 ft 260 kts 229°
2026-04-30 18:46 51.17863 6.70494 4350 ft 257 kts 228°
2026-04-30 18:47 51.16807 6.68207 3966 ft 254 kts 228°
2026-04-30 18:47 51.15759 6.65956 3589 ft 252 kts 228°
2026-04-30 18:47 51.14717 6.63717 3271 ft 250 kts 229°
2026-04-30 18:47 51.13670 6.61483 3049 ft 245 kts 229°
2026-04-30 18:48 51.12703 6.59369 2994 ft 234 kts 232°
2026-04-30 18:48 51.12256 6.56955 3006 ft 227 kts 269°
2026-04-30 18:48 51.12715 6.54653 3022 ft 215 kts 308°
2026-04-30 18:48 51.13723 6.52989 3024 ft 205 kts 321°
2026-04-30 18:49 51.14808 6.51558 2997 ft 199 kts 332°
2026-04-30 18:49 51.16068 6.51234 2997 ft 180 kts 26°
2026-04-30 18:49 51.16953 6.52420 3024 ft 165 kts 63°
2026-04-30 18:49 51.17664 6.53872 3023 ft 166 kts 58°
2026-04-30 18:50 51.18395 6.55296 3023 ft 167 kts 58°
2026-04-30 18:50 51.19108 6.56740 2967 ft 166 kts 59°
2026-04-30 18:50 51.19819 6.58207 2805 ft 168 kts 60°
2026-04-30 18:50 51.20539 6.59701 2597 ft 171 kts 59°
2026-04-30 18:51 51.21272 6.61226 2370 ft 174 kts 58°
2026-04-30 18:51 51.22012 6.62770 2168 ft 176 kts 60°
2026-04-30 18:51 51.22753 6.64312 1905 ft 174 kts 60°
2026-04-30 18:51 51.23473 6.65813 1659 ft 165 kts 57°
2026-04-30 18:52 51.24143 6.67208 1443 ft 152 kts 58°
2026-04-30 18:52 51.24759 6.68499 1275 ft 142 kts 59°
2026-04-30 18:52 51.25339 6.69700 1110 ft 133 kts 58°
2026-04-30 18:52 51.25894 6.70842 932 ft 128 kts 58°
2026-04-30 18:53 51.26431 6.71952 701 ft 127 kts 56°
2026-04-30 18:53 51.26951 6.73043 561 ft 120 kts 57°
2026-04-30 18:53 51.27452 6.74128 392 ft 121 kts 57°
2026-04-30 18:53 51.27964 6.75199 219 ft 121 kts 58°
2026-04-30 18:54 51.28453 6.76230 131 ft 107 kts 54°
2026-04-30 18:54 51.28817 6.77009 127 ft 66 kts 52°
2026-04-30 18:54 51.28991 6.77376 129 ft 28 kts 54°
2026-04-30 18:54 51.28990 6.77587 126 ft 13 kts 140°
2026-04-30 18:55 51.28944 6.77644 129 ft 0 kts 143°
2026-04-30 18:55 51.28890 6.77620 130 ft 13 kts 234°
2026-04-30 18:55 51.28815 6.77449 129 ft 23 kts 234°
2026-04-30 18:56 51.28603 6.77012 126 ft 26 kts 232°
2026-04-30 18:56 51.28492 6.76778 124 ft 27 kts 233°
2026-04-30 18:56 51.28377 6.76531 122 ft 29 kts 232°
2026-04-30 18:57 51.28150 6.76065 127 ft 18 kts 232°
2026-04-30 18:57 51.28039 6.76044 128 ft 18 kts 180°
2026-04-30 18:57 51.27946 6.76061 124 ft 9 kts 129°
2026-04-30 18:58 51.27942 6.76191 128 ft 0 kts 91°